Regional Weather Roundup
Issued by NWS

Home | Current Version | Previous Version | Graphics & Text | Print | Product List | Glossary Off
Versions: 1 2 3 4 5 6 7 8 9 10 11 12 13 14 15 16 17 18 19 20 21 22 23 24 25 26 27 28 29 30 31 32 33 34 35 36 37 38 39 40 41 42 43 44 45 46 47 48 49 50

000
ASUS43 KMKX 251514
RWRWI

WISCONSIN REGIONAL WEATHER ROUNDUP
NATIONAL WEATHER SERVICE MILWAUKEE/SULLIVAN WI
1000 AM CDT MON MAY 25 2015

NOTE: "FAIR" INDICATES FEW OR NO CLOUDS BELOW 12,000 FEET WITH NO
SIGNIFICANT WEATHER AND/OR OBSTRUCTIONS TO VISIBILITY.

WIZ001-002-006>008-014>016-023>028-251600-
NORTHWEST WISCONSIN

CITY           SKY/WX    TMP DP  RH WIND       PRES   REMARKS
SUPERIOR ARPT  RAIN      50  50  99 E14G23    29.71F
ASHLAND        CLOUDY    52  52 100 NE7       29.69F FOG
HAYWARD        CLOUDY    60  57  89 CALM      29.68F
SIREN          DRIZZLE   58  57  96 CALM      29.68S
CUMBERLAND     DRIZZLE   55  55 100 S5        29.68S
RICE LAKE      CLOUDY    58  56  94 CALM      29.69F FOG
CHETEK         CLOUDY    58  58  99 S3        29.68F FOG
LADYSMITH      LGT RAIN  60  60  97 S5        29.70S
EAU CLAIRE     CLOUDY    63  60  90 SW7       29.69R
MENOMONIE      CLOUDY    62  62  99 S8        29.69S
NEW RICHMOND   CLOUDY    60  60 100 S7        29.69R FOG
OSCEOLA        CLOUDY    60  60 100 S8        29.71S FOG
$$

WIZ003>005-009-010-017-018-251600-
NORTH CENTRAL WISCONSIN

CITY           SKY/WX    TMP DP  RH WIND       PRES   REMARKS
MANITOWISH WTR LGT RAIN  58  58 100 SE5       29.69F
ARBOR VITAE    LGT RAIN  59  58  96 S6        29.70F
WOODRUFF       LGT RAIN  59  58  96 S6        29.70F
RHINELANDER    LGT RAIN  59  58  96 SE6       29.71F FOG
EAGLE RIVER    HVY RAIN  57  57 100 SE7       29.71F
LAND O LAKES   LGT RAIN  58  57  99 SE7       29.72F
PHILLIPS       DRIZZLE   60  60 100 S7        29.67F
TOMAHAWK       DRIZZLE   60  59  97 CALM      29.70F
MEDFORD        RAIN      62  62 100 S10       29.70S
MERRILL        CLOUDY    61  61 100 S5        29.71S
$$

WIZ029-030-035-036-043>047-251600-
CENTRAL WISCONSIN

CITY           SKY/WX    TMP DP  RH WIND       PRES   REMARKS
WAUSAU         LGT RAIN  61  60  97 E3        29.70S FOG
MOSINEE        LGT RAIN  63  63 100 SE3       29.72S
MARSHFIELD     LGT RAIN  64  62  93 SW9       29.71S
STEVENS POINT  LGT RAIN  62  61  99 CALM      29.71F
WAUPACA        RAIN      67  66  97 SW9       29.71R
WAUTOMA        RAIN      66  66 100 SW9       29.72S FOG
WISC RAPIDS    LGT RAIN  65  62  90 SW6       29.72S
CAMP DOUGLAS   PTSUNNY   66  66 100 SW13      29.73R
$$

WIZ011>013-019>022-031-037>040-048>050-251600-
NORTHEAST WISCONSIN

CITY           SKY/WX    TMP DP  RH WIND       PRES   REMARKS
ANTIGO         LGT RAIN  57  57 100 SE5       29.72F
SHAWANO        DRIZZLE   63  62  96 CALM      29.70F
OCONTO         CLOUDY    60  60 100 SE7       29.72F
STURGEON BAY   CLOUDY    59  55  88 S17       29.76F
GREEN BAY      CLOUDY    67  64  90 S16       29.71F FOG
MANITOWOC      CLOUDY    57  56  96 S12       29.75F
APPLETON       CLOUDY    64  64 100 S12G18    29.71F FOG
CLINTONVILLE   DRIZZLE   64  63  94 SE7       29.69F
OSHKOSH        CLOUDY    67  64  90 S13       29.71S FOG
$$

WIZ032>034-041-042-053>061-251600-
SOUTHWEST WISCONSIN

CITY           SKY/WX    TMP DP  RH WIND       PRES   REMARKS
LA CROSSE      LGT RAIN  69  62  78 SW10      29.73R
SPARTA         CLOUDY    65  62  89 SW6       29.74R
VIROQUA        CLOUDY    64  64 100 SW13G18   29.77R
BOSCOBEL       LGT RAIN  66  63  90 SW9       29.78R
PRAIRIE DU CHI CLOUDY    66  62  89 S5        29.79R
PLATTEVILLE    CLOUDY    65  64  97 W16G23    29.82R
$$

WIZ056-057-062-063-064-067-068-251600-
SOUTH CENTRAL WISCONSIN

CITY           SKY/WX    TMP DP  RH WIND       PRES   REMARKS
REEDSBURG      CLOUDY    66  63  90 SW12G17   29.75R
BARABOO/DELLS  CLOUDY    66  62  86 SW12G18   29.75S
LONE ROCK      CLOUDY    68  62  81 SW12      29.78R
MINERAL POINT  RAIN      64  64 100 SW16      29.80R
MADISON        PTSUNNY   69  62  78 SW8G18    29.77R
MIDDLETON      CLOUDY    69  64  83 SW12      29.78R
WATERTOWN      PTSUNNY   68  68 100 SW14G21   29.77S
MONROE         CLOUDY    68  63  83 SW22G29   29.81R
JANESVILLE     PTSUNNY   72  63  73 W12G17    29.80R
$$

WIZ051-052-058>065-066-070>072-251600-
SOUTHEAST WISCONSIN

CITY           SKY/WX    TMP DP  RH WIND       PRES   REMARKS
MILWAUKEE      LGT RAIN  68  64  87 SW17G31   29.80R FOG
WAUKESHA       PTSUNNY   66  63  88 SW14      29.81R
MILWAUKEE/TIMM CLOUDY    70  63  78 SW12G20   29.80R
RACINE         LGT RAIN  71  63  75 SW22G33   29.83R
BURLINGTON     PTSUNNY   67  64  90 SW14      29.82R
KENOSHA        LGT RAIN  68  65  90 W20G29    29.83R FOG
FOND DU LAC    CLOUDY    70  62  76 SW21G29   29.74R
SHEBOYGAN      PTSUNNY   65  62  90 S15       29.76F
WEST BEND      CLOUDY    70  63  78 SW18G24   29.77S
JUNEAU         CLOUDY    67  63  85 S17       29.78R
$$

LSZ147-162-251600-
LAKE SUPERIOR

STATION/POSITION TIME  TEMP    WIND        PRES    WAVE
                       AIR SEA DIR/SP/G            HT/PER
                 (UTC) (F)     (DEG/KT/KT) (MB)    (FT/S)
W MID LAKE BUOY  1450   41 36   40/ 17/ 19 1072.0F   2/ 3
DEVILS ISLAND    1500   45      50/ 26/ 29 1062.0F
PORT WING        1400   48      40/ 16/ 19 1064.0
SAXON HARBOR     1440   49      CALM  /  6 1051.0F
$$

LMZ867-665-643>646-251600-
LAKE MICHIGAN

STATION/POSITION TIME  TEMP    WIND        PRES    WAVE
                       AIR SEA DIR/SP/G            HT/PER
                 (UTC) (F)     (DEG/KT/KT) (MB)    (FT/S)
CHAMBERS ISLAND  1400   56     110/  4/  8 1081.0
N MID LAKE BUOY  1450   46 36  180/ 10/ 12 1090.0    1
NORTHPORT PIER   1400   49     160/  8/ 12 1088.0
SISTER BAY       1417   53     150/ 11/ 15   N/A
KEWAUNEE LAKESHO 1400   47     180/  9/ 10 1077.0F
SHEBOYGAN LAKESH 1500   50     180/ 22/ 25 1082.0F
PORT WASHINGTON  1400   51     180/  2/  4   N/A
ATWATER BUOY     1400   52 46  170/ 12/ 14   N/A
MILWAUKEE LAKESH 1400   54     150/ 12/ 14   N/A
S MID LAKE BUOY  1450   49 38  180/ 14/ 16   N/A     2/ 4
KENOSHA   LAKESH 1500   71     210/ 24/ 34   N/A
$$

TC  - TEMPERATURE IN CELSIUS
VSB - VISIBILITY IN STATUTE MILES
WCI - WIND CHILL INDEX
HX  - HEAT INDEX




USA.gov is the U.S. government's official web portal to all federal, state and local government web resources and services.